Location: Aufkirchen
(47.9603°N, 11.3653°E)
Time: 06:49:39
(UTC+01:00)

Transit 2A - Pass Details

Date: 29 November 2020
Orbit: 598 x 960 km, 66.7° (Epoch: 16 January)

Event Time Altitude Azimuth Distance (km) Brightness Sun altitude
Rises 16:24:17 0° 176° (S) 3,627 9.9 -0.8°
Reaches altitude 10° 16:27:13 10° 165° (SSE) 2,676 9.0 -1.2°
Maximum altitude 16:32:22 27° 110° (ESE) 1,709 7.5 -1.9°
Drops below altitude 10° 16:37:19 10° 55° (NE) 2,580 8.1 -2.6°
Enters shadow 16:39:24 - 45° (NE) 3,243 8.6 -2.9°
Sets 16:40:05 0° 43° (NE) 3,473 - -3.0°
